Location: Eastlake (historical)
(39.0077°N, 122.6678°W)
Time: 05:23:08
(UTC+00:00)

Cosmos 1538 Rocket - Pass Details

Date: 25 November 2020
Orbit: 753 x 791 km, 74.0° (Epoch: 24 January)

Event Time Altitude Azimuth Distance (km) Brightness Sun altitude
Exits shadow 13:31:51 18° 331° (NNW) 1,871 5.6 -17.9°
Maximum altitude 13:35:49 62° 255° (WSW) 874 4.0 -17.1°
Drops below altitude 10° 13:40:59 10° 176° (S) 2,306 6.7 -16.1°
Sets 13:43:21 0° 173° (S) 3,222 7.5 -15.7°
